Location: Asheville, NC
(35.6000°N, 82.5500°W)
Time: 03:29:57
(UTC-04:00)

Vanguard 1 - Pass Details

Date: 16 March 2018
Orbit: 650 x 3833 km, 34.3° (Epoch: 17 June)

Event Time Altitude Azimuth Distance (km) Brightness Sun altitude
Rises 16:06:58 0° 288° (WNW) 7,805 15.0 39.3°
Reaches altitude 10° 16:13:09 10° 283° (WNW) 6,504 14.8 38.3°
Maximum altitude 16:30:14 40° 223° (SW) 3,306 15.0 35.5°
Drops below altitude 10° 16:40:35 10° 157° (SSE) 3,989 13.4 33.7°
Sets 16:43:23 0° 149° (SSE) 4,630 13.5 33.2°
